| time (UTC) | temp F | wind direction | speed MPH | gust MPH | rain 1hr in | rain 24hr in | rain mn in | humidity % | barometer mb |
| 20260510141824 | 0 | 0.0 | 0.0 | 0.00 | 0.43 | 0.00 | 1019.6 | ||
| 20260510140801 | 0 | 0.0 | 0.0 | 0.00 | 0.43 | 0.00 | 1019.8 | ||
| 20260510135724 | 0 | 0.0 | 0.0 | 0.00 | 0.43 | 0.00 | 1019.8 | ||
| 20260510134647 | 0 | 0.0 | 0.0 | 0.00 | 0.43 | 0.00 | 1019.6 | ||
| 20260510133616 | 0 | 0.0 | 0.0 | 0.00 | 0.43 | 0.00 | 1019.4 | ||
| 20260510132546 | 53 | 76 | 4.0 | 5.0 | 0.00 | 0.43 | 0.00 | 48 | 1019.4 |
| 20260510131527 | 53 | 128 | 4.0 | 5.0 | 0.00 | 0.43 | 0.00 | 51 | 1018.9 |
| 20260510130450 | 52 | 84 | 2.0 | 3.0 | 0.00 | 0.43 | 0.00 | 56 | 1018.7 |
| 20260510125431 | 51 | 113 | 2.0 | 4.0 | 0.00 | 0.43 | 0.00 | 63 | 1018.5 |
| 20260510124354 | 49 | 113 | 2.0 | 3.0 | 0.00 | 0.43 | 0.00 | 68 | 1018.5 |
| 20260510123330 | 50 | 135 | 2.0 | 5.0 | 0.00 | 0.43 | 0.00 | 66 | 1018.4 |
| 20260510122252 | 48 | 115 | 2.0 | 4.0 | 0.00 | 0.43 | 0.00 | 70 | 1018.3 |
| 20260510121221 | 48 | 119 | 3.0 | 4.0 | 0.00 | 0.43 | 0.00 | 73 | 1018.0 |
| 20260510120151 | 48 | 113 | 2.0 | 3.0 | 0.00 | 0.43 | 0.00 | 74 | 1017.7 |
| 20260510115152 | 48 | 0.0 | 0.0 | 0.00 | 0.43 | 0.00 | 74 | 1017.5 | |
| 20260510114054 | 47 | 128 | 2.0 | 3.0 | 0.00 | 0.43 | 0.00 | 75 | 1017.2 |
| 20260510113020 | 46 | 135 | 1.0 | 3.0 | 0.00 | 0.43 | 0.00 | 79 | 1017.0 |
| 20260510112027 | 46 | 148 | 2.0 | 3.0 | 0.00 | 0.43 | 0.00 | 83 | 1017.0 |
| 20260510110921 | 45 | 0.0 | 0.0 | 0.00 | 0.43 | 0.00 | 87 | 1016.7 | |
| 20260510105905 | 45 | 0.0 | 0.0 | 0.00 | 0.43 | 0.00 | 89 | 1016.6 | |
| 20260510104826 | 45 | 0.0 | 0.0 | 0.00 | 0.43 | 0.00 | 89 | 1016.0 | |
| 20260510103802 | 45 | 0.0 | 0.0 | 0.00 | 0.43 | 0.00 | 90 | 1015.8 | |
| 20260510102746 | 45 | 0.0 | 0.0 | 0.00 | 0.43 | 0.00 | 90 | 1015.5 | |
| 20260510101650 | 45 | 0.0 | 0.0 | 0.00 | 0.43 | 0.00 | 90 | 1015.3 | |
| 20260510100625 | 45 | 0.0 | 0.0 | 0.00 | 0.43 | 0.00 | 90 | 1015.5 | |
| 20260510095555 | 45 | 0.0 | 0.0 | 0.00 | 0.43 | 0.00 | 89 | 1015.5 | |
| 20260510094523 | 45 | 1.0 | 1.0 | 0.00 | 0.43 | 0.00 | 90 | 1015.3 | |
| 20260510093446 | 45 | 0.0 | 0.0 | 0.00 | 0.43 | 0.00 | 92 | 1015.1 | |
| 20260510092422 | 0 | 0.0 | 0.0 | 0.00 | 0.43 | 0.00 | 1014.8 | ||
| 20260510091345 | 45 | 0.0 | 0.0 | 0.00 | 0.43 | 0.00 | 92 | 1014.6 | |
| 20260510090320 | 0 | 0.0 | 0.0 | 0.00 | 0.43 | 0.00 | 1014.4 | ||
| 20260510085249 | 45 | 0.0 | 0.0 | 0.00 | 0.43 | 0.00 | 91 | 1014.1 | |
| 20260510084250 | 45 | 0.0 | 0.0 | 0.00 | 0.43 | 0.00 | 91 | 1014.2 | |
| 20260510083153 | 45 | 0.0 | 0.0 | 0.00 | 0.43 | 0.00 | 90 | 1014.2 | |
| 20260510082129 | 46 | 0.0 | 0.0 | 0.00 | 0.43 | 0.00 | 90 | 1014.0 | |
| 20260510081046 | 46 | 0.0 | 0.0 | 0.00 | 0.43 | 0.00 | 88 | 1013.8 | |
| 20260510080016 | 46 | 0.0 | 0.0 | 0.00 | 0.43 | 0.00 | 88 | 1013.5 | |
| 20260510074957 | 46 | 0.0 | 0.0 | 0.00 | 0.43 | 0.00 | 87 | 1013.2 | |
| 20260510073920 | 47 | 0.0 | 0.0 | 0.00 | 0.43 | 0.00 | 85 | 1013.1 | |
| 20260510072901 | 47 | 0.0 | 0.0 | 0.00 | 0.43 | 0.00 | 84 | 1013.1 | |
| 20260510071824 | 48 | 0.0 | 0.0 | 0.00 | 0.43 | 0.00 | 83 | 1012.9 | |
| 20260510070747 | 48 | 0.0 | 0.0 | 0.00 | 0.43 | 0.00 | 83 | 1012.8 | |
| 20260510065723 | 0 | 0.0 | 0.0 | 0.00 | 0.43 | 0.00 | 1012.8 | ||
| 20260510064647 | 49 | 135 | 2.0 | 3.0 | 0.00 | 0.43 | 0.00 | 81 | 1012.6 |
| 20260510063627 | 0 | 0.0 | 0.0 | 0.00 | 0.43 | 0.00 | 1012.6 | ||
| 20260510062551 | 50 | 135 | 2.0 | 3.0 | 0.00 | 0.43 | 0.00 | 81 | 1012.6 |
| 20260510061532 | 50 | 164 | 4.0 | 5.0 | 0.00 | 0.43 | 0.00 | 80 | 1012.7 |
| 20260510060455 | 51 | 125 | 2.0 | 4.0 | 0.00 | 0.43 | 0.00 | 89 | 1012.3 |
| 20260510055419 | 53 | 119 | 3.0 | 5.0 | 0.00 | 0.43 | 0.00 | 95 | 1011.9 |
| 20260510054400 | 53 | 0.0 | 0.0 | 0.00 | 0.43 | 0.00 | 96 | 1011.8 | |
| 20260510053323 | 53 | 0.0 | 0.0 | 0.00 | 0.43 | 0.00 | 95 | 1011.7 | |
| 20260510052246 | 53 | 0.0 | 0.0 | 0.00 | 0.43 | 0.00 | 95 | 1011.6 | |
| 20260510051247 | 52 | 0.0 | 0.0 | 0.00 | 0.43 | 0.00 | 95 | 1011.4 | |
| 20260510050145 | 52 | 0.0 | 0.0 | 0.00 | 0.43 | 0.00 | 95 | 1010.9 | |
| 20260510045127 | 52 | 0.0 | 0.0 | 0.00 | 0.43 | 0.00 | 95 | 1010.9 | |
| 20260510044049 | 0 | 0.0 | 0.0 | 0.00 | 0.43 | 0.00 | 1010.0 | ||
| 20260510043025 | 52 | 0.0 | 0.0 | 0.03 | 0.43 | 0.00 | 93 | 1009.9 | |
| 20260510041954 | 0 | 0.0 | 0.0 | 0.06 | 0.43 | 0.00 | 1009.9 | ||
| 20260510040931 | 53 | 0.0 | 0.0 | 0.08 | 0.43 | 0.00 | 94 | 1009.9 | |
| 20260510035848 | 53 | 0.0 | 0.0 | 0.08 | 0.43 | 0.43 | 94 | 1009.8 | |
| 20260510035323 | 53 | 0.0 | 0.0 | 0.08 | 0.43 | 0.43 | 95 | ||
| 20260510034947 | 54 | 0.0 | 0.0 | 0.08 | 0.43 | 0.43 | 95 | 1009.8 | |
| 20260510033922 | 54 | 0.0 | 0.0 | 0.08 | 0.43 | 0.43 | 95 | 1010.0 | |
| 20260510032846 | 54 | 0.0 | 0.0 | 0.05 | 0.40 | 0.40 | 95 | 1010.2 | |
| 20260510031827 | 54 | 158 | 1.0 | 3.0 | 0.02 | 0.36 | 0.36 | 95 | 1010.0 |
| 20260510030750 | 53 | 0.0 | 0.0 | 0.01 | 0.36 | 0.35 | 94 | 1010.0 | |
| 20260510025731 | 53 | 0.0 | 0.0 | 0.01 | 0.36 | 0.35 | 94 | 1010.0 | |
| 20260510024715 | 53 | 0.0 | 0.0 | 0.01 | 0.36 | 0.35 | 94 | 1009.9 | |
| 20260510023618 | 54 | 0.0 | 0.0 | 0.01 | 0.36 | 0.35 | 94 | 1009.6 | |
| 20260510022559 | 54 | 0.0 | 0.0 | 0.01 | 0.36 | 0.35 | 95 | 1010.1 | |
| 20260510021537 | 53 | 2.0 | 3.0 | 0.00 | 0.35 | 0.34 | 94 | 1010.1 | |
| 20260510020458 | 53 | 0.0 | 0.0 | 0.00 | 0.35 | 0.34 | 93 | 1009.4 | |
| 20260510015416 | 53 | 0.0 | 0.0 | 0.00 | 0.35 | 0.34 | 93 | 1009.3 | |
| 20260510014356 | 53 | 0.0 | 0.0 | 0.00 | 0.35 | 0.34 | 92 | 1009.2 | |
| 20260510013320 | 52 | 0.0 | 0.0 | 0.00 | 0.35 | 0.34 | 92 | 1009.1 | |
| 20260510012301 | 52 | 0.0 | 0.0 | 0.00 | 0.35 | 0.34 | 91 | 1009.1 | |
| 20260510011219 | 53 | 0.0 | 0.0 | 0.00 | 0.35 | 0.34 | 90 | 1009.1 | |
| 20260510010201 | 53 | 0.0 | 0.0 | 0.00 | 0.35 | 0.34 | 89 | 1009.0 | |
| 20260510005138 | 54 | 0.0 | 0.0 | 0.00 | 0.35 | 0.34 | 90 | 1008.9 | |
| 20260510004048 | 54 | 0.0 | 0.0 | 0.00 | 0.35 | 0.34 | 90 | 1008.9 | |
| 20260510003023 | 55 | 0.0 | 0.0 | 0.00 | 0.36 | 0.34 | 90 | 1008.9 | |
| 20260510001946 | 56 | 0.0 | 0.0 | 0.00 | 0.37 | 0.34 | 91 | 1008.9 | |
| 20260510000929 | 56 | 1.0 | 2.0 | 0.03 | 0.37 | 0.34 | 92 | 1008.9 | |
| 20260509235852 | 56 | 0.0 | 0.0 | 0.13 | 0.38 | 0.34 | 92 | 1008.9 | |
| 20260509234815 | 56 | 0.0 | 0.0 | 0.28 | 0.39 | 0.34 | 93 | 1008.8 | |
| 20260509233756 | 56 | 158 | 1.0 | 2.0 | 0.34 | 0.39 | 0.34 | 92 | 1008.8 |
| 20260509232719 | 56 | 0.0 | 1.0 | 0.34 | 0.40 | 0.34 | 93 | 1008.6 | |
| 20260509231655 | 55 | 158 | 2.0 | 3.0 | 0.34 | 0.41 | 0.34 | 91 | 1009.1 |
| 20260509230632 | 56 | 244 | 3.0 | 4.0 | 0.29 | 0.37 | 0.29 | 90 | 1008.3 |
| 20260509225632 | 57 | 270 | 3.0 | 4.0 | 0.18 | 0.27 | 0.18 | 85 | 1008.3 |
| 20260509224532 | 60 | 249 | 4.0 | 4.0 | 0.03 | 0.13 | 0.03 | 77 | 1008.3 |
| 20260509223456 | 68 | 190 | 3.0 | 5.0 | 0.00 | 0.11 | 0.00 | 53 | 1006.4 |
| 20260509222431 | 68 | 135 | 2.0 | 3.0 | 0.00 | 0.11 | 0.00 | 55 | 1005.9 |
| 20260509221414 | 69 | 158 | 2.0 | 2.0 | 0.00 | 0.12 | 0.00 | 54 | 1006.2 |
| 20260509220330 | 70 | 113 | 3.0 | 4.0 | 0.00 | 0.13 | 0.00 | 54 | 1006.2 |
| 20260509215253 | 70 | 113 | 1.0 | 2.0 | 0.00 | 0.14 | 0.00 | 55 | 1006.1 |
| 20260509214216 | 71 | 135 | 2.0 | 3.0 | 0.00 | 0.15 | 0.00 | 54 | 1006.0 |
| 20260509213157 | 71 | 135 | 3.0 | 4.0 | 0.00 | 0.15 | 0.00 | 55 | 1006.0 |
| 20260509212122 | 72 | 135 | 2.0 | 3.0 | 0.00 | 0.15 | 0.00 | 53 | 1006.0 |
| 20260509211057 | 72 | 113 | 3.0 | 6.0 | 0.00 | 0.15 | 0.00 | 55 | 1006.0 |
| 20260509210020 | 72 | 230 | 3.0 | 5.0 | 0.00 | 0.15 | 0.00 | 57 | 1006.4 |
| 20260509205001 | 71 | 124 | 3.0 | 4.0 | 0.00 | 0.15 | 0.00 | 58 | 1006.6 |
| 20260509203924 | 71 | 135 | 2.0 | 3.0 | 0.00 | 0.15 | 0.00 | 59 | 1006.7 |
| 20260509202846 | 71 | 135 | 2.0 | 3.0 | 0.00 | 0.15 | 0.00 | 57 | 1006.9 |
| 20260509201843 | 72 | 109 | 2.0 | 4.0 | 0.00 | 0.15 | 0.00 | 58 | 1007.3 |
| 20260509200805 | 70 | 158 | 3.0 | 5.0 | 0.00 | 0.15 | 0.00 | 57 | 1007.1 |
| 20260509195721 | 71 | 158 | 3.0 | 4.0 | 0.00 | 0.15 | 0.00 | 59 | 1007.1 |
| 20260509194702 | 70 | 113 | 3.0 | 4.0 | 0.00 | 0.15 | 0.00 | 56 | 1007.3 |
| 20260509193625 | 71 | 135 | 3.0 | 4.0 | 0.00 | 0.15 | 0.00 | 59 | 1007.5 |
| 20260509192549 | 70 | 135 | 2.0 | 3.0 | 0.00 | 0.15 | 0.00 | 60 | 1007.8 |
| 20260509191530 | 71 | 158 | 3.0 | 5.0 | 0.00 | 0.15 | 0.00 | 61 | 1007.8 |
| 20260509190453 | 71 | 135 | 2.0 | 3.0 | 0.00 | 0.15 | 0.00 | 61 | 1008.2 |
| 20260509185442 | 70 | 135 | 2.0 | 2.0 | 0.00 | 0.15 | 0.00 | 60 | 1008.3 |
| 20260509184358 | 69 | 158 | 3.0 | 3.0 | 0.00 | 0.15 | 0.00 | 63 | 1008.3 |
| 20260509183321 | 69 | 135 | 3.0 | 4.0 | 0.00 | 0.15 | 0.00 | 61 | 1008.3 |
| 20260509182306 | 68 | 158 | 2.0 | 3.0 | 0.00 | 0.15 | 0.00 | 64 | 1008.3 |
| 20260509181219 | 68 | 113 | 2.0 | 3.0 | 0.00 | 0.15 | 0.00 | 63 | 1008.4 |
| 20260509180203 | 69 | 158 | 2.0 | 3.0 | 0.00 | 0.15 | 0.00 | 62 | 1008.2 |
| 20260509175124 | 69 | 158 | 2.0 | 4.0 | 0.00 | 0.15 | 0.00 | 61 | 1008.3 |
| 20260509174059 | 69 | 113 | 2.0 | 4.0 | 0.00 | 0.15 | 0.00 | 62 | 1008.6 |
| 20260509173022 | 68 | 113 | 2.0 | 2.0 | 0.00 | 0.15 | 0.00 | 58 | 1008.6 |
| 20260509172003 | 68 | 113 | 2.0 | 3.0 | 0.00 | 0.15 | 0.00 | 57 | 1008.6 |
| 20260509170927 | 68 | 158 | 1.0 | 2.0 | 0.00 | 0.15 | 0.00 | 58 | 1008.6 |
| 20260509165930 | 67 | 158 | 2.0 | 4.0 | 0.00 | 0.15 | 0.00 | 60 | 1008.6 |
| 20260509164825 | 67 | 158 | 2.0 | 3.0 | 0.00 | 0.15 | 0.00 | 62 | 1008.7 |
| 20260509163754 | 66 | 158 | 2.0 | 2.0 | 0.00 | 0.15 | 0.00 | 61 | 1008.6 |
| 20260509162716 | 66 | 158 | 1.0 | 2.0 | 0.00 | 0.15 | 0.00 | 63 | 1008.7 |
| 20260509161658 | 65 | 113 | 2.0 | 2.0 | 0.00 | 0.15 | 0.00 | 66 | 1009.0 |
| 20260509160621 | 65 | 113 | 1.0 | 2.0 | 0.00 | 0.15 | 0.00 | 65 | 1009.2 |
| 20260509155550 | 63 | 113 | 1.0 | 2.0 | 0.00 | 0.15 | 0.00 | 68 | 1009.2 |
| 20260509154525 | 64 | 113 | 2.0 | 3.0 | 0.00 | 0.15 | 0.00 | 64 | 1009.3 |
| 20260509153508 | 63 | 113 | 2.0 | 2.0 | 0.00 | 0.15 | 0.00 | 71 | 1009.3 |
| 20260509152423 | 61 | 158 | 2.0 | 4.0 | 0.00 | 0.15 | 0.00 | 73 | 1009.2 |
| 20260509151347 | 59 | 113 | 1.0 | 2.0 | 0.00 | 0.15 | 0.00 | 77 | 1009.1 |
| 20260509150317 | 60 | 113 | 2.0 | 2.0 | 0.00 | 0.15 | 0.00 | 78 | 1009.1 |
| 20260509145312 | 59 | 113 | 1.0 | 2.0 | 0.00 | 0.15 | 0.00 | 80 | 1009.2 |
| 20260509144233 | 59 | 135 | 1.0 | 3.0 | 0.00 | 0.15 | 0.00 | 81 | 1009.2 |
| 20260509143155 | 59 | 113 | 2.0 | 2.0 | 0.00 | 0.15 | 0.00 | 84 | 1009.2 |